Jordan, MT

8:39 AM MST on December 18, 2017 (GMT -0700)
Jordan

Weather History for KJDN - July, 2013

Change the Weather History Date:

Thursday, July 25, 2013

  Actual Average Record
Temperature  
Mean Temperature 64 °F 71 °F  
Max Temperature 75 °F 87 °F 108 °F (1933)
Min Temperature 52 °F 56 °F 40 °F (1918)
Degree Days  
Heating Degree Days 1 1  
Month to date heating degree days 2 26  
Since 1 June heating degree days 97 151  
Since 1 July heating degree days 2 26  
Cooling Degree Days 0 7  
Month to date cooling degree days 179 136  
Year to date cooling degree days 239 190  
Since 1 June cooling degree days 227 184  
Growing Degree Days 15 (Base 50)    
Moisture  
Dew Point 53 °F    
Average Humidity 66    
Maximum Humidity 97    
Minimum Humidity 35    
Precipitation  
Precipitation 0.01 in 0.03 in 1.10 in (1916)
Month to date precipitation 1.77 1.62  
Year to date precipitation 12.79 8.48  
Snow  
Snow 0.00 in - - ()
Month to date snowfall 0.0  
Since 1 June snowfall 0.0  
Since 1 July snowfall 0.0  
Snow Depth 0.00 in    
Sea Level Pressure  
Sea Level Pressure 30.16 in    
Wind  
Wind Speed 7 mph (North)    
Max Wind Speed 17 mph    
Max Gust Speed 24 mph    
T = Trace of Precipitation, MM = Missing Value Source: NWS Daily Summary

Daily Weather History Graph

Daily Weather History Graph

Search for Another Location

Airport or City:

Trip Planner

Search our weather history database for the weather conditions in past years. The results will help you decide how hot, cold, wet, or windy it might be!

Date:

Astronomy

Jul. 25, 2013 Rise Set
Actual Time 5:37 AM MDT 8:49 PM MDT
Civil Twilight 5:01 AM MDT 9:26 PM MDT
Nautical Twilight 4:12 AM MDT 10:14 PM MDT
Astronomical Twilight 3:12 AM MDT 11:13 PM MDT
Moon 10:10 PM MDT (7/25) 9:29 AM MDT (7/25)
Length of Visible Light 16h 25m
Length of Day
15h 11m
Waning Gibbous, 88% of the Moon is Illuminated
Jul 25
Waning Gibbous
Jul 29
Last Quarter
Aug 6
New
Aug 14
First Quarter
Aug 20
Full

Hourly Weather History & Observations

Time (MDT) Temp. Dew Point Humidity Pressure Visibility Wind Dir Wind Speed Gust Speed Precip Events Conditions
12:48 AM 64.0 °F 61.0 °F 90% 30.07 in - West 6.9 mph - 0.03 in   Unknown
1:48 AM 63.0 °F 61.0 °F 93% 30.04 in - Calm Calm - 0.04 in   Unknown
2:48 AM 62.1 °F 60.1 °F 93% 30.06 in - NW 3.5 mph - N/A   Unknown
3:48 AM 60.1 °F 59.0 °F 96% 30.06 in - WSW 5.8 mph - N/A   Unknown
4:48 AM 59.0 °F 57.9 °F 96% 30.07 in - West 3.5 mph - N/A   Unknown
5:48 AM 59.0 °F 57.0 °F 93% 30.10 in - NW 4.6 mph - N/A   Unknown
6:48 AM 60.1 °F 57.9 °F 93% 30.13 in - West 4.6 mph - N/A   Unknown
7:48 AM 63.0 °F 57.0 °F 81% 30.16 in - North 5.8 mph - N/A   Unknown
8:48 AM 64.0 °F 55.9 °F 75% 30.19 in - NE 9.2 mph - N/A   Unknown
9:48 AM 66.9 °F 55.9 °F 68% 30.20 in - North 9.2 mph - N/A   Unknown
10:48 AM 68.0 °F 54.0 °F 61% 30.21 in - NE 6.9 mph - N/A   Unknown
11:48 AM 70.0 °F 55.0 °F 59% 30.20 in - North 6.9 mph - N/A   Unknown
12:48 PM 70.0 °F 55.0 °F 59% 30.19 in - NNE 9.2 mph - N/A   Unknown
1:48 PM 70.0 °F 54.0 °F 57% 30.19 in - North 11.5 mph - N/A   Unknown
2:48 PM 73.0 °F 53.1 °F 49% 30.18 in - NNE 8.1 mph - N/A   Unknown
3:48 PM 73.9 °F 51.1 °F 45% 30.18 in - NNE 6.9 mph 16.1 mph N/A   Unknown
4:48 PM 73.9 °F 48.9 °F 41% 30.17 in - North 11.5 mph - N/A   Unknown
5:48 PM 73.9 °F 45.0 °F 35% 30.16 in - NNE 11.5 mph - N/A   Unknown
6:48 PM 71.1 °F 44.1 °F 38% 30.18 in - NE 11.5 mph - N/A   Unknown
7:48 PM 69.1 °F 43.0 °F 39% 30.19 in - NE 8.1 mph - N/A   Unknown
8:48 PM 64.9 °F 44.1 °F 47% 30.21 in - NE 9.2 mph - N/A   Unknown
9:48 PM 62.1 °F 44.1 °F 52% 30.23 in - ENE 9.2 mph - N/A   Unknown
10:48 PM 57.9 °F 45.0 °F 62% 30.25 in - ENE 6.9 mph - N/A   Unknown
11:48 PM 55.0 °F 45.0 °F 69% 30.26 in - ENE 5.8 mph - N/A   Unknown